Weather observations for the past three days for
Majuro Atoll - NWS Office
Imperial (Metric)
Date Time (+12) Wind (mph) Vis. (mi.) Weather Sky Cond. Temperature (ºF) Relative Humidity Wind Chill (°F) Heat Index (°F) Pressure Precipitation (in)
Air Dwpt 6 hour altimeter (in) sea level (mb) 1 hr 3 hr 6 hr
Max. Min.
07 04:50 E 9 15.00 Mostly Cloudy FEW015 BKN300 83.7 74.8 75% 91 29.74 1007.1
07 03:50 E 18 15.00 Mostly Cloudy FEW015 SCT050 BKN300 83.5 75 76% 91 29.75 1007.3
07 02:55 E 15 15.00 Mostly Cloudy FEW015 SCT050 BKN300 83.1 75.4 78% 91 29.75 1007.4 0.07
07 01:56 E 10 15.00 Overcast FEW014 SCT050 BKN110 OVC300 81.7 75.7 82% 89 29.77 1008.2
07 00:54 E 12 15.00 Overcast FEW015 SCT050 BKN120 OVC300 83.5 76.6 80% 93 29.8 1009.0
06 23:55 N 18 15.00 Overcast SCT014TCU SCT050 OVC110 82.2 76.3 83.8 82.2 82% 90 29.82 1009.8
06 22:54 E 9 15.00 Overcast FEW015 SCT050 BKN120 OVC300 83.3 76.8 81% 92 29.83 1010.1
06 21:50 E 6 15.00 Overcast FEW015 SCT050 BKN120 OVC300 82.9 75.4 78% 91 29.83 1010.3
06 20:50 E 5 15.00 Overcast FEW015 SCT050 BKN120 OVC300 82.9 75.2 78% 90 29.84 1010.3
06 19:50 E 7 15.00 Overcast FEW015 SCT050 BKN120 OVC300 83.1 74.8 76% 90 29.81 1009.6
06 18:50 E 8 15.00 Overcast FEW015 SCT050 BKN120 OVC300 83.8 76.8 79% 93 29.8 1009.0
06 17:50 E 7 15.00 Overcast FEW015 SCT050 BKN120 OVC300 83.8 75.9 85.1 83.8 77% 93 29.78 1008.4
06 16:50 E 7 15.00 Overcast FEW015 SCT050 BKN120 OVC300 84.2 75.7 76% 93 29.76 1007.8
06 15:50 E 7 15.00 Overcast FEW015 SCT050 BKN120 OVC300 85.1 76.8 76% 95 29.77 1008.0
06 14:57 E 7 15.00 Overcast FEW015 SCT050 BKN120 OVC300 84.7 76.8 77% 95 29.78 1008.6
06 13:50 E 8 15.00 Overcast FEW015 SCT050 BKN120 OVC300 84 77 80% 94 29.78 1008.6
06 12:58 NE 6 15.00 Overcast SCT014 BKN050 BKN110 OVC300 84.7 76.6 77% 95 29.8 1009.2
06 10:58 E 6 15.00 Overcast SCT014 BKN050 BKN110 OVC300 84.7 76.8 77% 95 29.85 1010.8
06 09:58 E 9 15.00 Overcast SCT014 BKN050 BKN110 OVC300 84 77 80% 94 29.85 1010.9
06 08:58 E 9 15.00 Overcast SCT014 BKN050 BKN110 OVC300 83.3 77.2 82% 93 29.85 1010.9 0.15
06 06:50 E 6 12.00 Light Showers Rain SCT014TCU BKN045 OVC110 79 75.2 88% 83 29.85 1010.7
06 05:52 E 6 14.00 Light Rain SCT014 BKN045 BKN110 OVC130 78.6 74.8 81.5 78.4 88% 82 29.82 1009.9 0.37
06 04:51 E 8 12.00 Light Showers Rain SCT014TCU BKN045 BKN110 79 75.2 88% 83 29.8 1009.2
06 03:53 E 6 15.00 Overcast FEW015 BKN050 BKN120 OVC300 81.5 76.6 85% 89 29.78 1008.6
06 02:51 E 6 15.00 Overcast FEW014 BKN045 BKN120 OVC300 81 76.3 86% 87 29.79 1008.9 0.03
06 01:50 E 8 12.00 Light Showers Rain SCT014TCU BKN045 BKN110 80.6 76.5 87% 87 29.8 1009.2
06 00:50 E 9 15.00 Overcast FEW014TCU SCT045 BKN120 OVC300 79.9 76.1 88% 85 29.83 1010.0
05 23:51 Vrbl 3 15.00 Overcast FEW014TCU SCT045 BKN120 OVC300 78.4 75.7 79.3 77.9 91% 82 29.85 1010.9 0.62
05 22:51 Vrbl 5 12.00 Light Showers Rain SCT014TCU SCT045 BKN110 78.6 75.2 89% 82 29.85 1010.9
05 21:50 E 5 11.00 Light Showers Rain SCT014TCU SCT045 BKN110 BKN130 77.9 74.3 89% 80 29.86 1011.3
05 20:57 E 7 14.00 Light Rain SCT014 SCT045 BKN110 BKN130 79.3 75.9 89% 84 29.85 1010.9 0.36
05 19:50 E 5 14.00 Light Rain SCT014 SCT045 BKN110 BKN130 79 74.7 87% 83 29.8 1009.0
05 18:50 E 6 15.00 Overcast FEW014TCU SCT045 BKN110 OVC300 79.3 75.2 87% 84 29.8 1009.0
05 17:50 E 7 14.00 Light Rain SCT014 SCT045 BKN110 BKN130 78.8 73.8 87.6 78.8 85% 82 29.77 1008.1 0.11
05 16:50 E 6 15.00 Overcast FEW014TCU SCT050 BKN120 OVC300 84.4 77.4 80% 95 29.76 1007.8
05 15:50 NE 8 11.00 Light Showers Rain SCT014TCU SCT045 BKN110 84.2 76.6 78% 94 29.74 1007.1
05 14:54 E 7 15.00 Overcast FEW015 SCT050 BKN120 OVC300 86.7 77.4 74% 99 29.74 1007.1
05 13:50 E 9 15.00 Overcast FEW015 SCT050 BKN120 OVC300 87.3 78.3 75% 101 29.74 1007.2
05 12:50 E 8 15.00 Overcast FEW015 SCT050 BKN120 OVC300 87.6 78.4 74% 102 29.75 1007.3
05 10:58 E 15 15.00 Overcast FEW015 SCT050 OVC300 87.4 77 71% 99 29.79 1008.8
05 09:56 E 14 15.00 Mostly Cloudy FEW015 SCT050 BKN300 86.4 77.2 74% 98 29.8 1009.0
05 08:55 E 15 15.00 Mostly Cloudy FEW015 SCT050 BKN300 86 76.6 74% 97 29.78 1008.5
05 07:57 E 14 15.00 Overcast FEW015 SCT050 BKN120 OVC300 85.1 75.9 74% 95 29.76 1007.9
05 06:51 E 15 15.00 Overcast FEW015 SCT050 BKN120 OVC300 83.7 75.9 78% 92 29.77 1008.0
05 05:51 E 8 15.00 Overcast FEW015 SCT050 BKN120 OVC300 83.5 75.6 84.7 83.5 77% 92 29.75 1007.6 0.02
05 04:52 NE 10 15.00 Overcast FEW014 SCT045 BKN120 OVC300 84.6 77 78% 95 29.76 1007.6
05 03:51 E 8 15.00 Overcast FEW014TCU SCT050 BKN120 OVC300 84.4 76.6 78% 94 29.75 1007.4
05 02:53 NE 10 15.00 Overcast FEW015 SCT050 BKN120 OVC300 84.7 77.2 78% 95 29.77 1008.0
05 01:53 NE 10 15.00 Overcast FEW015 SCT050 BKN120 OVC300 84.7 77.2 78% 95 29.77 1008.0
05 00:52 NE 6 15.00 Overcast FEW015 SCT050 BKN120 OVC300 84.4 77 79% 94 29.79 1008.7
04 23:53 NE 6 15.00 Overcast FEW015 SCT050 BKN120 OVC300 83.8 79.2 84.9 82.8 86% 96 29.8 1009.1
04 22:52 NE 7 15.00 Overcast FEW015 SCT050 BKN120 OVC300 83.3 77.5 83% 93 29.83 1010.1
04 21:50 NE 6 15.00 Mostly Cloudy FEW015 SCT050 BKN300 82.8 75.9 80% 91 29.8 1009.3
04 20:53 NE 7 15.00 Overcast FEW014TCU SCT050 OVC300 84.7 76.1 75% 94 29.79 1008.9
04 19:50 NE 5 15.00 Mostly Cloudy FEW015 SCT050 BKN300 84.6 75.9 75% 94 29.79 1008.8
04 18:50 E 7 15.00 Mostly Cloudy FEW015 SCT050 BKN300 84.7 76.1 75% 94 29.77 1008.0
04 17:50 NE 10 15.00 Partly Cloudy FEW015 SCT300 84.9 76.6 86.2 80.6 76% 95 29.73 1006.9
04 16:50 NE 8 15.00 Partly Cloudy FEW015 SCT300 86.7 76.6 72% 98 29.72 1006.4
04 15:57 NE 8 15.00 Partly Cloudy FEW015 SCT300 87.1 76.8 72% 99 29.71 1006.1
04 14:58 E 7 15.00 Partly Cloudy FEW015 SCT300 87.8 77.7 72% 101 29.72 1006.3
04 10:58 E 16 15.00 Mostly Cloudy FEW014 SCT050 BKN120 BKN300 86.2 77.4 75% 98 29.81 1009.4
04 09:58 NE 18 15.00 Mostly Cloudy FEW014 SCT050 BKN110 BKN300 85.3 77.7 78% 97 29.82 1009.7
04 08:58 NE 12 15.00 Mostly Cloudy FEW014 SCT050 BKN110 BKN300 86 77.4 75% 98 29.82 1009.7
04 07:55 NE 12 15.00 Mostly Cloudy FEW014 SCT050 BKN110 BKN300 83.3 77 81% 93 29.81 1009.5
04 06:51 E 5 15.00 Overcast FEW014TCU SCT050 BKN120 OVC300 81.5 75.6 82% 88 29.78 1008.4
04 05:51 E 6 14.00 Light Rain SCT014 SCT045 BKN110 BKN130 80.6 75.6 84.7 80.6 85% 86 29.77 1008.3 0.43
Date Time (+12) Wind (mph) Vis. (mi.) Weather Sky Cond. Air Dwpt Max. Min. Relative Humidity Wind Chill (°F) Heat Index (°F) altimeter (in) sea level (mb) 1 hr 3 hr 6 hr
6 hour
Temperature (ºF) Pressure Precipitation (in)